Change the Weather History Date:

Thursday, January 9, 2014

  Actual Average Record
Temperature  
Mean Temperature 46 °F 44 °F  
Max Temperature 60 °F 53 °F 66 °F (2012)
Min Temperature 32 °F 36 °F 25 °F (2000)
Degree Days  
Heating Degree Days 19    
Month to date heating degree days 157  
Since 1 July heating degree days 1182  
Cooling Degree Days 0    
Month to date cooling degree days 0  
Year to date cooling degree days 0  
Moisture  
Dew Point 38 °F    
Average Humidity 75    
Maximum Humidity 100    
Minimum Humidity 49    
Precipitation  
Precipitation 0.00 in 0.08 in 0.38 in (2005)
Month to date precipitation 0.00 0.85  
Year to date precipitation 0.00 0.85  
Since 1 July precipitation 0.39 4.19  
Snow  
Snow 0.00 in - - ()
Month to date snowfall 0.0  
Since 1 July snowfall 0.0  
Snow Depth 0.00 in    
Sea Level Pressure  
Sea Level Pressure 30.22 in    
Wind  
Wind Speed 3 mph (WSW)    
Max Wind Speed 14 mph    
Max Gust Speed 17 mph    
Visibility 2 miles    
Events Fog    
T = Trace of Precipitation, MM = Missing Value Source: NWS Daily Summary

Daily Weather History Graph

Daily Weather History Graph

Search for Another Location

Airport or City:

Trip Planner

Search our weather history database for the weather conditions in past years. The results will help you decide how hot, cold, wet, or windy it might be!

Date:

Astronomy

Jan. 09, 2014 Rise Set
Actual Time 7:10 AM PST 5:01 PM PST
Civil Twilight 6:41 AM PST 5:29 PM PST
Nautical Twilight 6:10 AM PST 6:01 PM PST
Astronomical Twilight 5:39 AM PST 6:32 PM PST
Moon 12:27 PM PST (1/9) 1:27 AM PST (1/9)
Length of Visible Light 10h 47m
Length of Day
9h 51m
Waxing Gibbous, 67% of the Moon is Illuminated
Jan 9
Waxing Gibbous
Jan 15
Full
Jan 23
Last Quarter
Jan 30
New
Feb 6
First Quarter

Hourly Weather History & Observations

Time (PST) Temp. Windchill Dew Point Humidity Pressure Visibility Wind Dir Wind Speed Gust Speed Precip Events Conditions
12:01 AM 41.0 °F - 39.0 °F 93% 30.19 in 1.0 mi Calm Calm - N/A   Clear
12:16 AM 39.9 °F - 39.0 °F 97% 30.18 in 0.5 mi Calm Calm - N/A Fog Fog
12:45 AM 39.0 °F 35.7 °F 37.0 °F 93% 30.19 in 2.5 mi WNW 4.6 mph - N/A   Clear
12:53 AM 37.0 °F 33.3 °F 35.1 °F 93% 30.20 in 4.0 mi WNW 4.6 mph - N/A   Clear
1:53 AM 39.0 °F 36.8 °F 37.0 °F 93% 30.22 in 4.0 mi West 3.5 mph - N/A   Clear
2:15 AM 37.9 °F - 37.0 °F 97% 30.20 in 1.8 mi Calm Calm - N/A   Clear
2:23 AM 36.0 °F - 36.0 °F 100% 30.21 in 0.2 mi Calm Calm - N/A Fog Fog
2:53 AM 35.1 °F - 33.1 °F 92% 30.22 in 0.2 mi Calm Calm - N/A Fog Fog
3:08 AM 33.1 °F - 32.0 °F 96% 30.22 in 0.2 mi Calm Calm - N/A Fog Fog
3:53 AM 32.0 °F 28.7 °F 32.0 °F 100% 30.21 in 0.2 mi South 3.5 mph - N/A Fog Fog
4:53 AM 33.1 °F - 32.0 °F 96% 30.22 in 0.2 mi Calm Calm - N/A Fog Fog
5:51 AM 33.8 °F - 33.8 °F 100% 30.22 in 0.2 mi Calm Calm - N/A Fog Fog
5:53 AM 34.0 °F - 33.1 °F 96% 30.23 in 0.2 mi Calm Calm - N/A Fog Fog
6:53 AM 35.1 °F 32.2 °F 33.1 °F 92% 30.24 in 0.2 mi East 3.5 mph - N/A Fog Fog
7:53 AM 36.0 °F - 35.1 °F 97% 30.24 in 0.2 mi Calm Calm - N/A Fog Fog
8:29 AM 37.9 °F - 37.0 °F 97% 30.24 in 0.2 mi Calm Calm - N/A Fog Fog
8:53 AM 37.9 °F - 37.9 °F 100% 30.25 in 1.0 mi Calm Calm - N/A   Mist
9:01 AM 39.0 °F - 37.9 °F 96% 30.24 in 1.2 mi Calm Calm - N/A   Partly Cloudy
9:31 AM 41.0 °F 39.0 °F 39.9 °F 96% 30.24 in 2.0 mi South 3.5 mph - N/A   Clear
9:53 AM 45.0 °F 43.5 °F 41.0 °F 86% 30.25 in 3.0 mi SSW 3.5 mph - N/A   Clear
10:53 AM 51.1 °F - 41.0 °F 68% 30.25 in 5.0 mi Variable 4.6 mph - N/A   Haze
11:53 AM 55.0 °F - 43.0 °F 64% 30.21 in 6.0 mi WNW 5.8 mph - N/A   Haze
12:53 PM 57.9 °F - 43.0 °F 58% 30.19 in 6.0 mi NNW 8.1 mph - N/A   Haze
1:53 PM 60.1 °F - 41.0 °F 49% 30.17 in 6.0 mi NNW 8.1 mph - N/A   Haze
2:19 PM 60.1 °F - 41.0 °F 49% 30.16 in 1.8 mi NNW 11.5 mph - N/A   Haze
3:53 PM 60.1 °F - 41.0 °F 49% 30.17 in 5.0 mi NNE 6.9 mph - N/A   Haze
4:53 PM 55.9 °F - 42.1 °F 60% 30.19 in 4.0 mi NE 5.8 mph - N/A   Haze
5:53 PM 54.0 °F - 41.0 °F 62% 30.20 in 5.0 mi Calm Calm - N/A   Haze
6:53 PM 48.9 °F - 39.9 °F 71% 30.21 in 5.0 mi Calm Calm - N/A   Haze
7:53 PM 46.9 °F - 39.0 °F 74% 30.22 in 4.0 mi Calm Calm - N/A   Haze
8:53 PM 45.0 °F 43.5 °F 37.9 °F 76% 30.23 in 4.0 mi SSE 3.5 mph - N/A   Haze
9:53 PM 44.1 °F 41.5 °F 39.0 °F 82% 30.25 in 3.0 mi South 4.6 mph - N/A   Haze
10:49 PM 41.0 °F 38.0 °F 37.4 °F 87% 30.25 in 2.5 mi SSE 4.6 mph - N/A   Clear
10:53 PM 41.0 °F 38.0 °F 37.9 °F 89% 30.26 in 2.0 mi South 4.6 mph - N/A   Clear
11:53 PM 39.9 °F - 39.0 °F 97% 30.26 in 2.5 mi Calm Calm - N/A   Clear